• In Russia
  • List of Countries
  • For 7 days
  • Water Temperature
  • Satellite Maps
  • Weather Map
  • Weather Widgets
  • user-avatar
    Login

    Hourly Weather Mbandaka

    Today, 19 January, Saturday

    Time Temperature Precipitation Wind Pressure Humidity
    00:00 +25°C° 0 mm 0 mps 730 mmHg 54%
    01:00 +24°C° 0 mm 0 mps 731 mmHg 63%
    02:00 +24°C° 0 mm 0 mps 731 mmHg 65%
    03:00 +24°C° 0 mm 0 mps 731 mmHg 67%
    04:00 +23°C° 0 mm 0 mps 731 mmHg 69%
    05:00 +24°C° 0 mm 0 mps 731 mmHg 69%
    06:00 +26°C° 0 mm 1 mps 732 mmHg 69%
    07:00 +27°C° 0 mm 1 mps 732 mmHg 69%
    08:00 +29°C° 0 mm 1 mps 732 mmHg 60%
    09:00 +32°C° 0 mm 1 mps 733 mmHg 50%
    10:00 +36°C° 0 mm 2 mps 733 mmHg 41%
    11:00 +37°C° 0 mm 1 mps 732 mmHg 38%
    12:00 +39°C° 0 mm 1 mps 731 mmHg 34%
    13:00 +40°C° 0 mm 1 mps 731 mmHg 31%
    14:00 +39°C° 0 mm 1 mps 730 mmHg 33%
    15:00 +37°C° 0 mm 1 mps 729 mmHg 36%
    16:00 +36°C° 0 mm 1 mps 729 mmHg 39%
    17:00 +34°C° 0 mm 1 mps 729 mmHg 44%
    18:00 +32°C° 0 mm 1 mps 729 mmHg 49%
    19:00 +30°C° 0 mm 1 mps 730 mmHg 53%
    20:00 +30°C° 0 mm 1 mps 730 mmHg 55%
    21:00 +29°C° 0 mm 1 mps 731 mmHg 57%
    22:00 +29°C° 0 mm 1 mps 731 mmHg 59%
    23:00 +28°C° 0.1 mm 1 mps 731 mmHg 64%

    Tomorrow, 20 January, Sunday

    Time Temperature Precipitation Wind Pressure Humidity
    00:00 +27°C° 0.1 mm 1 mps 731 mmHg 68%
    01:00 +26°C° 0.1 mm 1 mps 731 mmHg 73%
    02:00 +26°C° 0.1 mm 1 mps 731 mmHg 76%
    03:00 +25°C° 0.1 mm 1 mps 731 mmHg 78%
    04:00 +25°C° 0.1 mm 1 mps 731 mmHg 81%
    05:00 +25°C° 0 mm 1 mps 731 mmHg 80%
    06:00 +26°C° 0 mm 1 mps 732 mmHg 79%
    07:00 +26°C° 0 mm 2 mps 732 mmHg 78%
    08:00 +29°C° 0 mm 2 mps 732 mmHg 67%
    09:00 +32°C° 0 mm 2 mps 732 mmHg 56%
    10:00 +36°C° 0 mm 2 mps 732 mmHg 46%
    11:00 +38°C° 0 mm 2 mps 732 mmHg 40%
    12:00 +40°C° 0 mm 1 mps 731 mmHg 34%
    13:00 +42°C° 0 mm 1 mps 730 mmHg 28%
    14:00 +40°C° 0 mm 1 mps 729 mmHg 32%
    15:00 +37°C° 0 mm 1 mps 729 mmHg 35%
    16:00 +36°C° 0 mm 1 mps 728 mmHg 38%
    17:00 +34°C° 0 mm 1 mps 728 mmHg 43%
    18:00 +33°C° 0 mm 1 mps 729 mmHg 47%
    19:00 +31°C° 0 mm 1 mps 729 mmHg 51%
    20:00 +31°C° 0 mm 1 mps 730 mmHg 52%
    21:00 +31°C° 0 mm 1 mps 730 mmHg 53%
    22:00 +30°C° 0 mm 1 mps 731 mmHg 55%
    23:00 +30°C° 0.1 mm 1 mps 731 mmHg 57%

    Day after tomorrow, 21 January, Monday

    Time Temperature Precipitation Wind Pressure Humidity
    00:00 +30°C° 0.1 mm 1 mps 731 mmHg 60%
    01:00 +29°C° 0.1 mm 1 mps 730 mmHg 62%
    02:00 +28°C° 0.6 mm 1 mps 731 mmHg 71%
    03:00 +27°C° 0.6 mm 1 mps 731 mmHg 80%
    04:00 +25°C° 0.6 mm 2 mps 731 mmHg 89%
    05:00 +25°C° 1.6 mm 2 mps 731 mmHg 90%
    06:00 +25°C° 1.6 mm 2 mps 732 mmHg 91%
    07:00 +25°C° 1.6 mm 2 mps 733 mmHg 92%
    08:00 +26°C° 0 mm 3 mps 733 mmHg 85%
    09:00 +28°C° 0 mm 3 mps 733 mmHg 78%
    10:00 +29°C° 0 mm 3 mps 734 mmHg 72%
    11:00 +30°C° 0 mm 3 mps 732 mmHg 66%
    12:00 +33°C° 0 mm 3 mps 731 mmHg 59%
    13:00 +34°C° 0 mm 3 mps 730 mmHg 53%
    14:00 +34°C° 0 mm 2 mps 730 mmHg 52%
    15:00 +34°C° 0 mm 2 mps 729 mmHg 51%
    16:00 +34°C° 0 mm 2 mps 729 mmHg 50%
    17:00 +31°C° 0 mm 2 mps 729 mmHg 57%
    18:00 +30°C° 0 mm 2 mps 729 mmHg 64%
    19:00 +28°C° 0 mm 1 mps 730 mmHg 72%
    20:00 +27°C° 0 mm 1 mps 730 mmHg 73%
    21:00 +26°C° 0 mm 1 mps 731 mmHg 74%
    22:00 +24°C° 0 mm 0 mps 732 mmHg 76%
    23:00 +24°C° 0.1 mm 0 mps 731 mmHg 78%

    22 January, Tuesday

    Time Temperature Precipitation Wind Pressure Humidity
    00:00 +23°C° 0.1 mm 0 mps 731 mmHg 80%
    01:00 +23°C° 0.1 mm 0 mps 731 mmHg 82%
    02:00 +25°C° 0 mm 1 mps 731 mmHg 82%
    03:00 +25°C° 0 mm 1 mps 730 mmHg 83%
    04:00 +25°C° 0 mm 2 mps 730 mmHg 83%
    05:00 +25°C° 0 mm 2 mps 731 mmHg 83%
    06:00 +25°C° 0 mm 2 mps 731 mmHg 83%
    07:00 +25°C° 0 mm 2 mps 731 mmHg 82%
    08:00 +28°C° 0 mm 2 mps 732 mmHg 72%
    09:00 +30°C° 0 mm 2 mps 732 mmHg 62%
    10:00 +34°C° 0 mm 2 mps 732 mmHg 51%
    11:00 +36°C° 0 mm 2 mps 731 mmHg 44%
    12:00 +38°C° 0 mm 2 mps 730 mmHg 37%
    13:00 +40°C° 0 mm 2 mps 729 mmHg 30%
    14:00 +39°C° 0 mm 2 mps 729 mmHg 31%
    15:00 +38°C° 0 mm 2 mps 728 mmHg 32%
    16:00 +38°C° 0 mm 2 mps 727 mmHg 33%
    17:00 +36°C° 0 mm 2 mps 728 mmHg 40%
    18:00 +33°C° 0 mm 1 mps 728 mmHg 47%
    19:00 +30°C° 0 mm 1 mps 729 mmHg 53%
    20:00 +30°C° 0.1 mm 1 mps 729 mmHg 56%
    21:00 +29°C° 0.1 mm 1 mps 730 mmHg 59%
    22:00 +27°C° 0.1 mm 0 mps 730 mmHg 61%
    23:00 +28°C° 0 mm 1 mps 730 mmHg 65%

    23 January, Wednesday

    Time Temperature Precipitation Wind Pressure Humidity
    00:00 +28°C° 0 mm 1 mps 730 mmHg 68%
    01:00 +27°C° 0 mm 1 mps 729 mmHg 71%
    02:00 +26°C° 0.4 mm 1 mps 729 mmHg 77%
    03:00 +26°C° 0.4 mm 1 mps 729 mmHg 83%
    04:00 +25°C° 0.4 mm 2 mps 730 mmHg 88%
    05:00 +25°C° 0 mm 2 mps 730 mmHg 87%
    06:00 +26°C° 0 mm 2 mps 731 mmHg 86%
    07:00 +26°C° 0 mm 2 mps 731 mmHg 85%
    08:00 +29°C° 0 mm 2 mps 732 mmHg 73%
    09:00 +31°C° 0 mm 2 mps 732 mmHg 61%
    10:00 +35°C° 0 mm 3 mps 732 mmHg 50%
    11:00 +36°C° 0 mm 3 mps 731 mmHg 46%
    12:00 +37°C° 0 mm 3 mps 730 mmHg 42%
    13:00 +38°C° 0 mm 3 mps 729 mmHg 38%
    14:00 +37°C° 0 mm 2 mps 729 mmHg 41%
    15:00 +36°C° 0 mm 2 mps 728 mmHg 44%
    16:00 +34°C° 0 mm 1 mps 728 mmHg 47%
    17:00 +33°C° 0 mm 1 mps 728 mmHg 52%
    18:00 +31°C° 0 mm 1 mps 728 mmHg 57%
    19:00 +30°C° 0 mm 1 mps 729 mmHg 62%
    20:00 +29°C° 1.2 mm 1 mps 729 mmHg 69%
    21:00 +28°C° 1.2 mm 1 mps 730 mmHg 76%
    22:00 +26°C° 1.2 mm 2 mps 730 mmHg 83%
    23:00 +26°C° 1.2 mm 1 mps 730 mmHg 86%

    24 January, Thursday

    Time Temperature Precipitation Wind Pressure Humidity
    00:00 +26°C° 1.2 mm 1 mps 730 mmHg 90%
    01:00 +24°C° 1.2 mm 0 mps 730 mmHg 93%
    02:00 +23°C° 0.4 mm 0 mps 730 mmHg 93%
    03:00 +25°C° 0.4 mm 1 mps 730 mmHg 93%
    04:00 +25°C° 0.4 mm 1 mps 730 mmHg 93%
    05:00 +23°C° 0 mm 0 mps 731 mmHg 93%
    06:00 +23°C° 0 mm 0 mps 731 mmHg 92%
    07:00 +23°C° 0 mm 0 mps 731 mmHg 92%
    08:00 +25°C° 0.1 mm 1 mps 731 mmHg 92%
    09:00 +25°C° 0.1 mm 1 mps 731 mmHg 92%
    10:00 +25°C° 0.1 mm 1 mps 731 mmHg 92%
    11:00 +28°C° 0 mm 1 mps 731 mmHg 78%
    12:00 +31°C° 0 mm 2 mps 730 mmHg 63%
    13:00 +35°C° 0 mm 2 mps 729 mmHg 48%
    14:00 +35°C° 0 mm 2 mps 729 mmHg 46%
    15:00 +35°C° 0 mm 1 mps 728 mmHg 44%
    16:00 +35°C° 0 mm 1 mps 727 mmHg 42%
    17:00 +33°C° 0 mm 1 mps 728 mmHg 49%
    18:00 +31°C° 0 mm 1 mps 728 mmHg 56%
    19:00 +29°C° 0 mm 1 mps 728 mmHg 63%
    20:00 +28°C° 0 mm 1 mps 729 mmHg 65%
    21:00 +28°C° 0 mm 1 mps 729 mmHg 66%
    22:00 +27°C° 0 mm 1 mps 729 mmHg 68%
    23:00 +27°C° 0 mm 1 mps 729 mmHg 69%
    Show more